[TLELIST] Archives

 

Current TLEs

November 15th 2006 PDT

HST 1 20580U 90037B 06317.92589969 +.00000740 +00000-0 +44948-4 0 07406 2 20580 028.4670 153.7092 0003430 331.0336 029.0065 15.00131222707609 ISS (ZARYA) 1 25544U 98067A 06319.30347627 .00018154 00000-0 10753-3 0 631 2 25544 051.6324 128.6062 0011461 215.6239 205.4412 15.78078395457006 CXO 1 25867U 99040B 06318.45833333 +.00000416 +00000-0 +00000-0 0 00004 2 25867 060.6119 093.8165 5948923 287.9678 356.4588 00.37804654001447 ____________________________________________________________________ These 2-Line ...Continue Reading

Current TLEs

November 14th 2006 PDT

HST 1 20580U 90037B 06317.85936958 .00000768 00000-0 47129-4 0 7394 2 20580 028.4669 154.1433 0003451 330.6003 029.4392 15.00131245707590 ISS (ZARYA) 1 25544U 98067A 06318.54043134 .00020216 00000-0 11938-3 0 584 2 25544 051.6311 132.5489 0011390 213.0832 190.1818 15.78057447456881 CXO 1 25867U 99040B 06315.83333333 +.00000351 +00000-0 +00000-0 0 09993 2 25867 060.6033 093.8684 5945978 288.0379 359.0389 00.37801660001436 ____________________________________________________________________ These 2-Line ...Continue Reading

Current TLEs

November 13th 2006 PDT

HST 1 20580U 90037B 06315.92999472 +.00000557 +00000-0 +30606-4 0 07501 2 20580 028.4673 166.7222 0003501 308.6594 051.3683 15.00128641707308 ISS (ZARYA) 1 25544U 98067A 06317.52898877 .00019935 00000-0 11796-3 0 514 2 25544 051.6322 137.7778 0011734 208.3329 205.1232 15.78018237456725 CXO 1 25867U 99040B 06315.83333333 +.00000351 +00000-0 +00000-0 0 09993 2 25867 060.6033 093.8684 5945978 288.0379 359.0389 00.37801660001436 ____________________________________________________________________ These 2-Line ...Continue Reading

Current TLEs

November 12th 2006 PDT

HST 1 20580U 90037B 06315.92999472 .00000557 00000-0 30606-4 0 7387 2 20580 028.4673 166.7222 0003501 308.6594 051.3683 15.00128641707308 ISS (ZARYA) 1 25544U 98067A 06316.51396007 .00023979 00000-0 14125-3 0 444 2 25544 051.6318 143.0219 0011670 204.8705 198.5244 15.77983441456565 CXO 1 25867U 99040B 06315.83333333 +.00000351 +00000-0 +00000-0 0 09993 2 25867 060.6033 093.8684 5945978 288.0379 359.0389 00.37801660001436 ____________________________________________________________________ These 2-Line ...Continue Reading

Current TLEs

November 11th 2006 PDT

HST 1 20580U 90037B 06314.86551095 .00000550 00000-0 30015-4 0 7370 2 20580 028.4672 173.6622 0003567 297.0056 063.0173 15.00127747707146 ISS (ZARYA) 1 25544U 98067A 06314.82976852 .00015840 00000-0 95107-4 0 334 2 25544 051.6334 151.7188 0012021 196.2992 353.4063 15.77888743456297 CXO 1 25867U 99040B 06313.16666667 +.00000310 +00000-0 +00000-0 0 09980 2 25867 060.5944 093.9110 5943469 288.1298 355.9264 00.37799566001422 ____________________________________________________________________ These 2-Line ...Continue Reading

Current TLEs

November 10th 2006 PDT

HST 1 20580U 90037B 06312.93613305 +.00000580 +00000-0 +32360-4 0 07478 2 20580 028.4675 186.2419 0003595 275.8898 084.1281 15.00126446706858 ISS (ZARYA) 1 25544U 98067A 06314.49373250 .00015614 00000-0 93863-4 0 314 2 25544 051.6332 153.4542 0012035 195.0983 244.4959 15.77876125456249 CXO 1 25867U 99040B 06313.16666667 +.00000310 +00000-0 +00000-0 0 09980 2 25867 060.5944 093.9110 5943469 288.1298 355.9264 00.37799566001422 ____________________________________________________________________ These 2-Line ...Continue Reading

Current TLEs

November 9th 2006 PDT

PUBLIC "-//W3C//DTD XHTML 1.0 Transitional//EN" "http://www.w3.org/TR/xhtml1/DTD/xhtml1-transitional.dtd"> ____________________________________________________________________ These 2-Line Elements (TLEs) are direct from DoD/ USSTRATCOM/ US Space Command with permission. Updates are provided automatically daily. By receiving this email, you agree not to transfer any data or information received under this agreement, including the analysis of tracking data, to any other entity without the ...Continue Reading

Current TLEs

November 8th 2006 PDT

HST 1 20580U 90037B 06311.87164842 .00000558 00000-0 30661-4 0 7351 2 20580 028.4679 193.1825 0003663 263.7720 096.2450 15.00125497706695 ISS (ZARYA) 1 25544U 98067A 06312.38931713 .00009708 00000-0 60115-4 0 168 2 25544 051.6338 164.3262 0012125 186.6892 171.2231 15.77793857455902 CXO 1 25867U 99040B 06310.54166667 +.00000348 +00000-0 +00000-0 0 09974 2 25867 060.5741 093.9696 5944009 288.1949 358.5216 00.37804441001414 ____________________________________________________________________ These 2-Line ...Continue Reading

Current TLEs

November 7th 2006 PDT

HST 1 20580U 90037B 06309.94226912 +.00000539 +00000-0 +29191-4 0 07482 2 20580 028.4680 205.7613 0003804 243.8605 116.1592 15.00123828706404 ISS (ZARYA) 1 25544U 98067A 06311.37444444 .00022767 00000-0 13539-3 0 95 2 25544 051.6351 169.5646 0012341 183.4900 166.0529 15.77794195455745 CXO 1 25867U 99040B 06310.54166667 +.00000348 +00000-0 +00000-0 0 09974 2 25867 060.5741 093.9696 5944009 288.1949 358.5216 00.37804441001414 ____________________________________________________________________ These 2-Line ...Continue Reading

Current TLEs

November 6th 2006 PDT

HST 1 20580U 90037B 06310.14186005 .00000555 00000-0 30399-4 0 7349 2 20580 028.4680 204.4593 0003760 245.4838 114.5362 15.00124111706430 ISS (ZARYA) 1 25544U 98067A 06310.26226852 .00024259 00000-0 14426-3 0 31 2 25544 051.6348 175.3094 0012459 178.2798 329.8818 15.77748241455572 CXO 1 25867U 99040B 06307.87500000 +.00000443 +00000-0 +00000-0 0 09964 2 25867 060.5475 094.0511 5943757 288.2063 355.5469 00.37809287001402 ____________________________________________________________________ These 2-Line ...Continue Reading
  • This mailing list is a public mailing list - anyone may join or leave, at any time.
  • This mailing list is announce-only.

International Space Station (ISS) / Hubble Space Telescope (HST) / Chandra X-Ray Observatory Orbital Data via EMAIL

Privacy Policy:

Private list